K5KVN-2 Weather Reports


time (UTC)temp
C
wind
direction
speed
KPH
gust
KPH
rain 1hr
cm
rain 24hr
cm
rain mn
cm
humidity
%
barometer
mb
20260902100502 26 122 0.0 3.2 0.00 0.00 0.00 69 1017.6
20260902095502 26 122 0.0 3.2 0.00 0.00 0.00 69 1017.5
20260902094501 26 113 0.0 1.6 0.00 0.00 0.00 69 1017.6
20260902093503 26 119 0.0 3.2 0.00 0.00 0.00 68 1017.6
20260902092501 27 134 0.0 1.6 0.00 0.00 0.00 67 1017.6
20260902091504 27 150 1.6 4.8 0.00 0.00 0.00 66 1017.5
20260902090501 27 159 1.6 4.8 0.00 0.00 0.00 66 1017.4
20260902085501 27 150 3.2 8.0 0.00 0.00 0.00 67 1017.5
20260902084503 27 137 3.2 4.8 0.00 0.00 0.00 66 1017.5
20260902083500 27 151 3.2 6.4 0.00 0.00 0.00 67 1017.5
20260902082502 27 128 3.2 6.4 0.00 0.00 0.00 66 1017.4
20260902081502 27 146 3.2 8.0 0.00 0.00 0.00 66 1017.6
20260902080500 27 135 3.2 4.8 0.00 0.00 0.00 66 1017.6
20260902075457 27 128 4.8 6.4 0.00 0.00 0.00 65 1017.5
20260902074456 27 144 4.8 6.4 0.00 0.00 0.00 65 1017.4
20260902073456 27 140 4.8 8.0 0.00 0.00 0.00 65 1017.5
20260902072456 27 139 4.8 6.4 0.00 0.00 0.00 64 1017.5
20260902071454 27 143 4.8 8.0 0.00 0.00 0.00 64 1017.6
20260902070454 27 152 4.8 6.4 0.00 0.00 0.00 64 1017.6
20260902065454 27 135 4.8 8.0 0.00 0.00 0.00 64 1017.7
20260902064455 27 151 3.2 8.0 0.00 0.00 0.00 63 1017.6
20260902063454 28 145 4.8 8.0 0.00 0.00 0.00 63 1017.6
20260902062455 28 148 4.8 9.7 0.00 0.00 0.00 62 1017.5
20260902060448 27 159 4.8 9.7 0.00 0.00 0.00 63 1017.6
20260902055936 27 171 1.6 8.0 0.00 0.00 0.00 63 1017.6
20260902054450 27 163 3.2 6.4 0.00 0.00 0.00 62 1017.6
20260902053448 28 171 6.4 9.7 0.00 0.00 0.00 62 1017.5
20260902052446 28 170 6.4 9.7 0.00 0.00 0.00 62 1017.5
20260902051446 28 177 3.2 6.4 0.00 0.00 0.00 62 1017.5
20260902050448 28 184 1.6 4.8 0.00 0.00 0.00 60 1017.4
20260902045448 28 133 3.2 4.8 0.00 0.00 0.00 59 1017.3
20260902044444 28 118 3.2 6.4 0.00 0.00 0.00 58 1017.3
20260902043442 29 128 3.2 4.8 0.00 0.00 0.00 57 1017.3
20260902042440 29 138 3.2 4.8 0.00 0.00 0.00 57 1017.4
20260902041438 29 136 4.8 9.7 0.00 0.00 0.00 57 1017.3
20260902040438 29 132 4.8 6.4 0.00 0.00 0.00 56 1017.2
20260902035438 30 140 4.8 6.4 0.00 0.00 0.00 55 1017.1
20260902034916 30 115 4.8 6.4 0.00 0.00 0.00 55 1017.2
20260902033439 30 138 4.8 8.0 0.00 0.00 0.00 54 1017.2
20260902032439 30 139 4.8 9.7 0.00 0.00 0.00 53 1017.1
20260902031437 30 134 6.4 9.7 0.00 0.00 0.00 53 1017.0
20260902030436 30 140 4.8 9.7 0.00 0.00 0.00 52 1016.8
20260902025437 30 144 4.8 8.0 0.00 0.00 0.00 51 1016.7
20260902024915 30 142 4.8 8.0 0.00 0.00 0.00 50 1016.7
20260902023436 31 135 4.8 9.7 0.00 0.00 0.00 49 1016.4
20260902022436 31 128 6.4 9.7 0.00 0.00 0.00 49 1016.3
20260902021436 31 141 6.4 11.3 0.00 0.00 0.00 48 1016.3
20260902020438 31 136 6.4 11.3 0.00 0.00 0.00 47 1016.2
20260902015434 31 144 6.4 9.7 0.00 0.00 0.00 47 1016.1
20260902014435 31 126 6.4 9.7 0.00 0.00 0.00 46 1015.9
20260902013434 32 116 4.8 6.4 0.00 0.00 0.00 45 1015.6
20260902012909 32 142 4.8 6.4 0.00 0.00 0.00 44 1015.4
20260902011436 32 140 4.8 6.4 0.00 0.00 0.00 44 1015.3
20260902010435 32 142 4.8 8.0 0.00 0.00 0.00 43 1015.5
20260902005435 32 150 3.2 8.0 0.00 0.00 0.00 43 1015.5
20260902004436 33 148 4.8 9.7 0.00 0.00 0.00 42 1015.4
20260902002435 34 166 11.3 17.7 0.00 0.00 0.00 39 1015.5
20260902001435 34 145 9.7 17.7 0.00 0.00 0.00 39 1015.5
20260902000436 35 168 9.7 17.7 0.00 0.00 0.00 38 1015.5
20260901235912 35 165 9.7 17.7 0.00 0.00 0.00 36 1015.5
20260901234435 35 179 11.3 19.3 0.00 0.00 0.00 35 1015.5
20260901233435 35 165 12.9 20.9 0.00 0.00 0.00 35 1015.5
20260901232435 36 159 9.7 16.1 0.00 0.00 0.00 34 1015.7
20260901231435 36 121 6.4 12.9 0.00 0.00 0.00 34 1015.7
20260901230435 36 101 6.4 12.9 0.00 0.00 0.00 33 1015.9
20260901225435 36 149 8.0 14.5 0.00 0.00 0.00 32 1015.9
20260901224435 36 117 9.7 16.1 0.00 0.00 0.00 32 1015.9
20260901223435 37 155 11.3 17.7 0.00 0.00 0.00 31 1015.7
20260901222435 37 155 9.7 17.7 0.00 0.00 0.00 30 1015.9
20260901221433 36 123 4.8 12.9 0.00 0.00 0.00 31 1015.6
20260901220432 37 144 6.4 14.5 0.00 0.00 0.00 30 1015.9
20260901215910 37 164 11.3 20.9 0.00 0.00 0.00 30 1015.7
20260901214433 36 134 3.2 8.0 0.00 0.00 0.00 32 1015.9
20260901212912 36 184 6.4 14.5 0.00 0.00 0.00 32 1016.2
20260901211430 36 201 11.3 20.9 0.00 0.00 0.00 32 1016.3
20260901210431 36 161 6.4 16.1 0.00 0.00 0.00 33 1016.4
20260901205430 37 142 9.7 17.7 0.00 0.00 0.00 32 1016.6
20260901203430 37 164 9.7 17.7 0.00 0.00 0.00 33 1016.6
20260901202429 37 207 6.4 24.1 0.00 0.00 0.00 33 1016.7
20260901201916 36 178 12.9 22.5 0.00 0.00 0.00 33 1017.0
20260901200431 36 153 8.0 19.3 0.00 0.00 0.00 36 1016.9
20260901195430 36 192 11.3 25.7 0.00 0.00 0.00 35 1017.1
20260901194429 36 103 4.8 17.7 0.00 0.00 0.00 35 1017.2
20260901193429 35 165 1.6 6.4 0.00 0.00 0.00 40 1017.2
20260901192427 34 129 3.2 8.0 0.00 0.00 0.00 40 1017.3
20260901191424 34 128 3.2 9.7 0.00 0.00 0.00 41 1017.5
20260901190424 34 115 3.2 11.3 0.00 0.00 0.00 41 1017.7
20260901185425 35 100 3.2 11.3 0.00 0.00 0.00 40 1017.7
20260901184423 35 165 8.0 17.7 0.00 0.00 0.00 40 1017.7
20260901183424 35 355 6.4 11.3 0.00 0.00 0.00 40 1017.9
20260901182419 35 194 4.8 12.9 0.00 0.00 0.00 43 1018.2
20260901181420 35 231 3.2 12.9 0.00 0.00 0.00 42 1018.3
20260901180902 35 186 4.8 14.5 0.00 0.00 0.00 41 1018.6
20260901175417 35 199 9.7 16.1 0.00 0.00 0.00 41 1018.8
20260901174418 34 202 6.4 16.1 0.00 0.00 0.00 44 1018.9
20260901173417 34 186 6.4 16.1 0.00 0.00 0.00 43 1019.1
20260901172906 33 126 9.7 19.3 0.00 0.00 0.00 45 1019.1
20260901171418 35 199 9.7 19.3 0.00 0.00 0.00 43 1019.2
20260901170422 34 199 6.4 14.5 0.00 0.00 0.00 45 1019.5
20260901165903 34 217 6.4 16.1 0.00 0.00 0.00 45 1019.5
20260901164417 33 232 8.0 14.5 0.00 0.00 0.00 46 1019.7
20260901163414 33 169 12.9 22.5 0.00 0.00 0.00 46 1019.7
20260901162413 33 190 11.3 17.7 0.00 0.00 0.00 48 1019.8
20260901161415 33 171 6.4 19.3 0.00 0.00 0.00 48 1019.8
20260901160413 33 188 9.7 16.1 0.00 0.00 0.00 51 1019.9
20260901155413 33 172 11.3 24.1 0.00 0.00 0.00 49 1020.0
20260901154413 32 173 8.0 16.1 0.00 0.00 0.00 50 1020.0
20260901153414 32 195 4.8 16.1 0.00 0.00 0.00 51 1020.0
20260901152413 32 225 8.0 16.1 0.00 0.00 0.00 53 1019.8
20260901151849 32 168 9.7 22.5 0.00 0.00 0.00 54 1019.9
20260901150415 31 194 11.3 20.9 0.00 0.00 0.00 54 1020.0
20260901145414 31 181 12.9 22.5 0.00 0.00 0.00 56 1019.8
20260901144413 31 216 11.3 20.9 0.00 0.00 0.00 57 1020.0
20260901143413 30 178 9.7 17.7 0.00 0.00 0.00 59 1019.9
20260901142413 30 207 8.0 17.7 0.00 0.00 0.00 59 1020.0
20260901141414 29 180 6.4 12.9 0.00 0.00 0.00 62 1019.9
20260901140415 28 173 6.4 12.9 0.00 0.00 0.00 63 1020.0
20260901135414 28 198 4.8 11.3 0.00 0.00 0.00 65 1019.9
20260901134416 27 205 3.2 8.0 0.00 0.00 0.00 67 1020.1
20260901133412 26 209 0.0 4.8 0.00 0.00 0.00 70 1020.1
20260901132415 25 157 0.0 0.0 0.00 0.00 0.00 72 1019.9
20260901131414 25 157 0.0 0.0 0.00 0.00 0.00 75 1019.8
20260901130413 25 157 0.0 0.0 0.00 0.00 0.00 75 1019.7
20260901125847 25 157 0.0 0.0 0.00 0.00 0.00 74 1019.7
20260901124415 25 126 0.0 0.0 0.00 0.00 0.00 75 1019.7
20260901123412 24 128 0.0 0.0 0.00 0.00 0.00 75 1019.4
20260901122413 24 179 0.0 1.6 0.00 0.00 0.00 74 1019.2
20260901121410 24 242 0.0 0.0 0.00 0.00 0.00 73 1019.1
20260901120410 25 242 0.0 0.0 0.00 0.00 0.00 72 1019.0
20260901115408 24 242 0.0 0.0 0.00 0.00 0.00 72 1019.0
20260901114408 25 242 0.0 0.0 0.00 0.00 0.00 71 1018.9
20260901113846 25 214 0.0 1.6 0.00 0.00 0.00 71 1018.8
20260901112406 25 196 0.0 3.2 0.00 0.00 0.00 71 1018.8
20260901111405 25 248 0.0 0.0 0.00 0.00 0.00 71 1018.8
20260901110405 25 186 0.0 0.0 0.00 0.00 0.00 70 1018.7
20260901105406 25 186 0.0 0.0 0.00 0.00 0.00 70 1018.6
20260901104839 25 242 0.0 0.0 0.00 0.00 0.00 69 1018.4
20260901103406 26 199 0.0 3.2 0.00 0.00 0.00 67 1018.6
20260901102844 26 178 0.0 3.2 0.00 0.00 0.00 67 1018.4
20260901101404 26 150 0.0 3.2 0.00 0.00 0.00 67 1018.3